Volver al catálogo

FLOCK 4H 9

ActivoCienciaSSO
NORAD 66712·PAYLOAD·🇺🇸 United States

Lanzado Nov 28, 2025 desde Vandenberg Space Force Base

Loading…

Próximos Pases (próximas 24 horas)

TLE

ActualizadoSource: CelesTrak SupGP

Época: Sep 14, 2026, 12:45 UTC

1 66712C 25276AY  26257.53136574  .00008938  00000+0  39833-3 0  2573
2 66712  97.4143 329.9214 0004094  50.0011 233.3821 15.21486622    16

Sigue FLOCK 4H 9 en tiempo real con AllMySat

Download on the App Store